Time,TemperatureF,DewpointF,PressureIn,WindDirection,WindDirectionDegrees,WindSpeedMPH,WindSpeedGustMPH,Humidity,HourlyPrecipIn,Conditions,Clouds,dailyrainin,SoftwareType,DateUTC
2013-12-14 06:53:00,-6.0,-10.0,30.40,South,169,0.0,-999.0,84,-99.99,,,-99.99,,2013-12-14 11:53:00,
2013-12-14 07:12:00,-5.0,-9.0,30.51,South,169,0.0,-999.0,83,-99.99,,,-99.99,,2013-12-14 12:12:00,
2013-12-14 07:22:00,-6.0,-10.0,30.42,South,169,0.0,-999.0,83,-99.99,,,-99.99,,2013-12-14 12:22:00,
2013-12-14 07:42:00,-6.0,-10.0,30.52,South,169,0.0,-999.0,84,-99.99,,,-99.99,,2013-12-14 12:42:00,
2013-12-14 07:53:00,-6.0,-10.0,30.53,South,169,0.0,-999.0,84,-99.99,,,-99.99,,2013-12-14 12:53:00,
2013-12-14 08:11:00,-6.0,-10.0,30.53,South,169,0.0,-999.0,84,-99.99,,,-99.99,,2013-12-14 13:11:00,
2013-12-14 08:22:00,-5.0,-9.0,30.44,South,169,0.0,-999.0,84,-99.99,,,-99.99,,2013-12-14 13:22:00,
2013-12-14 08:42:00,-5.0,-9.0,30.54,South,169,0.0,-999.0,84,-99.99,,,-99.99,,2013-12-14 13:42:00,
2013-12-14 08:52:00,-4.0,-7.0,30.44,South,169,0.0,-999.0,85,-99.99,,,-99.99,,2013-12-14 13:52:00,
2013-12-14 09:11:00,-3.0,-6.0,30.54,South,169,0.0,-999.0,85,-99.99,,,-99.99,,2013-12-14 14:11:00,
2013-12-14 09:22:00,-2.0,-6.0,30.43,South,169,0.0,-999.0,83,-99.99,,,-99.99,,2013-12-14 14:22:00,
2013-12-14 09:42:00,-2.0,-6.0,30.54,SSE,168,0.0,-999.0,83,-99.99,,,-99.99,,2013-12-14 14:42:00,
2013-12-14 09:52:00,-1.0,-5.0,30.44,SSE,151,1.0,-999.0,81,-99.99,,,-99.99,,2013-12-14 14:52:00,
2013-12-14 10:11:00,0.0,-5.0,30.55,East,97,1.0,-999.0,80,-99.99,,,-99.99,,2013-12-14 15:11:00,
2013-12-14 10:22:00,0.0,-5.0,30.44,East,93,1.0,-999.0,80,-99.99,,,-99.99,,2013-12-14 15:22:00,
2013-12-14 10:44:00,0.0,-5.0,30.55,East,79,1.0,-999.0,78,-99.99,,,-99.99,,2013-12-14 15:44:00,
2013-12-14 10:54:00,2.0,-4.0,30.44,ESE,102,1.0,-999.0,76,-99.99,,,-99.99,,2013-12-14 15:54:00,
2013-12-14 11:13:00,2.0,-4.0,30.54,East,101,1.0,-999.0,75,-99.99,,,-99.99,,2013-12-14 16:13:00,
2013-12-14 11:23:00,4.0,-4.0,30.43,East,80,1.0,-999.0,69,-99.99,,,-99.99,,2013-12-14 16:23:00,
2013-12-14 11:43:00,3.0,-5.0,30.53,ESE,112,2.0,-999.0,67,-99.99,,,-99.99,,2013-12-14 16:43:00,
2013-12-14 11:53:00,5.0,-3.0,30.42,East,92,2.0,-999.0,68,-99.99,,,-99.99,,2013-12-14 16:53:00,
2013-12-14 12:12:00,4.0,-5.0,30.52,ESE,103,1.0,-999.0,66,-99.99,,,-99.99,,2013-12-14 17:12:00,
2013-12-14 12:23:00,5.0,-4.0,30.52,ESE,123,0.0,-999.0,64,-99.99,,,-99.99,,2013-12-14 17:23:00,
2013-12-14 12:42:00,6.0,-4.0,30.52,East,82,1.0,-999.0,64,-99.99,,,-99.99,,2013-12-14 17:42:00,
2013-12-14 12:53:00,6.0,-3.0,30.41,ESE,107,2.0,-999.0,65,-99.99,,,-99.99,,2013-12-14 17:53:00,
2013-12-14 13:12:00,5.0,-4.0,30.52,East,80,2.0,-999.0,64,-99.99,,,-99.99,,2013-12-14 18:12:00,
2013-12-14 13:22:00,6.0,-4.0,30.39,ENE,72,1.0,-999.0,64,-99.99,,,-99.99,,2013-12-14 18:22:00,
2013-12-14 13:42:00,6.0,-4.0,30.50,ENE,72,1.0,-999.0,64,-99.99,,,-99.99,,2013-12-14 18:42:00,
2013-12-14 13:52:00,7.0,-3.0,30.38,East,93,0.0,-999.0,62,-99.99,,,-99.99,,2013-12-14 18:52:00,
2013-12-14 14:12:00,6.0,-4.0,30.48,ESE,104,0.0,-999.0,62,-99.99,,,-99.99,,2013-12-14 19:12:00,
2013-12-14 14:22:00,8.0,-2.0,30.37,ESE,103,0.0,-999.0,63,-99.99,,,-99.99,,2013-12-14 19:22:00,
2013-12-14 14:42:00,7.0,-4.0,30.49,ENE,78,1.0,-999.0,61,-99.99,,,-99.99,,2013-12-14 19:42:00,
2013-12-14 14:52:00,8.0,-3.0,30.36,ENE,78,0.0,-999.0,61,-99.99,,,-99.99,,2013-12-14 19:52:00,
2013-12-14 15:11:00,7.0,-4.0,30.47,ENE,78,0.0,-999.0,60,-99.99,,,-99.99,,2013-12-14 20:11:00,
2013-12-14 15:22:00,7.0,-4.0,30.46,ENE,78,0.0,-999.0,61,-99.99,,,-99.99,,2013-12-14 20:22:00,
2013-12-14 15:32:00,7.0,-4.0,30.46,ENE,78,0.0,-999.0,61,-99.99,,,-99.99,,2013-12-14 20:32:00,
2013-12-14 15:42:00,7.0,-4.0,30.46,ENE,78,0.0,-999.0,61,-99.99,,,-99.99,,2013-12-14 20:42:00,
2013-12-14 15:54:00,8.0,-4.0,30.35,NW,306,0.0,-999.0,58,-99.99,,,-99.99,,2013-12-14 20:54:00,
2013-12-14 16:11:00,8.0,-3.0,30.46,NNE,29,0.0,-999.0,59,-99.99,,,-99.99,,2013-12-14 21:11:00,
2013-12-14 16:22:00,8.0,-3.0,30.36,NNE,29,0.0,-999.0,61,-99.99,,,-99.99,,2013-12-14 21:22:00,
2013-12-14 16:44:00,8.0,-2.0,30.46,NNE,29,0.0,-999.0,62,-99.99,,,-99.99,,2013-12-14 21:44:00,
2013-12-14 16:54:00,8.0,-2.0,30.33,NNE,29,0.0,-999.0,62,-99.99,,,-99.99,,2013-12-14 21:54:00,
2013-12-14 17:13:00,7.0,-3.0,30.44,NNE,29,0.0,-999.0,62,-99.99,,,-99.99,,2013-12-14 22:13:00,
2013-12-14 17:23:00,8.0,-2.0,30.31,NNE,28,0.0,-999.0,62,-99.99,,,-99.99,,2013-12-14 22:23:00,
2013-12-14 17:43:00,8.0,-2.0,30.42,NNE,28,0.0,-999.0,63,-99.99,,,-99.99,,2013-12-14 22:43:00,
2013-12-14 17:52:00,8.0,-3.0,30.30,NNE,28,0.0,-999.0,60,-99.99,,,-99.99,,2013-12-14 22:52:00,
2013-12-14 18:12:00,8.0,-3.0,30.40,NNE,28,0.0,-999.0,60,-99.99,,,-99.99,,2013-12-14 23:12:00,
2013-12-14 18:22:00,8.0,-3.0,30.39,NNE,28,0.0,-999.0,60,-99.99,,,-99.99,,2013-12-14 23:22:00,
2013-12-14 18:33:00,8.0,-3.0,30.39,NNE,28,0.0,-999.0,60,-99.99,,,-99.99,,2013-12-14 23:33:00,
2013-12-14 18:43:00,8.0,-3.0,30.39,NNE,28,0.0,-999.0,60,-99.99,,,-99.99,,2013-12-14 23:43:00,
2013-12-14 18:53:00,9.0,-1.0,30.26,NNE,28,0.0,-999.0,62,-99.99,,,-99.99,,2013-12-14 23:53:00,
2013-12-14 19:11:00,8.0,-2.0,30.37,NNE,28,0.0,-999.0,62,-99.99,,,-99.99,,2013-12-15 00:11:00,
2013-12-14 19:23:00,9.0,-1.0,30.26,NNE,28,0.0,-999.0,62,-99.99,,,-99.99,,2013-12-15 00:23:00,
2013-12-14 19:42:00,8.0,-1.0,30.37,NNE,28,0.0,-999.0,65,-99.99,,,-99.99,,2013-12-15 00:42:00,
2013-12-14 19:52:00,8.0,2.0,30.26,NNE,28,0.0,-999.0,76,-99.99,,,-99.99,,2013-12-15 00:52:00,
2013-12-14 20:12:00,8.0,3.0,30.37,NNE,28,0.0,-999.0,78,-99.99,,,-99.99,,2013-12-15 01:12:00,
2013-12-14 20:21:00,8.0,3.0,30.24,NNE,28,0.0,-999.0,80,-99.99,,,-99.99,,2013-12-15 01:21:00,
2013-12-14 20:42:00,8.0,4.0,30.35,NNE,28,0.0,-999.0,82,-99.99,,,-99.99,,2013-12-15 01:42:00,
2013-12-14 20:52:00,8.0,4.0,30.23,NNE,28,0.0,-999.0,84,-99.99,,,-99.99,,2013-12-15 01:52:00,
2013-12-14 21:11:00,7.0,3.0,30.31,NNE,28,0.0,-999.0,85,-99.99,,,-99.99,,2013-12-15 02:11:00,
2013-12-14 21:22:00,8.0,5.0,30.19,NNE,28,0.0,-999.0,86,-99.99,,,-99.99,,2013-12-15 02:22:00,
2013-12-14 21:42:00,7.0,4.0,30.30,NNE,28,0.0,-999.0,86,-99.99,,,-99.99,,2013-12-15 02:42:00,
2013-12-14 21:52:00,8.0,5.0,30.20,NNE,28,0.0,-999.0,87,-99.99,,,-99.99,,2013-12-15 02:52:00,
2013-12-14 22:12:00,8.0,5.0,30.30,NNE,28,0.0,-999.0,88,-99.99,,,-99.99,,2013-12-15 03:12:00,
2013-12-14 22:22:00,8.0,5.0,30.17,NNE,28,0.0,-999.0,88,-99.99,,,-99.99,,2013-12-15 03:22:00,
2013-12-14 22:43:00,8.0,5.0,30.26,NNE,28,0.0,-999.0,87,-99.99,,,-99.99,,2013-12-15 03:43:00,
2013-12-14 22:54:00,8.0,5.0,30.14,NNE,28,0.0,-999.0,88,-99.99,,,-99.99,,2013-12-15 03:54:00,
2013-12-14 23:03:00,-999.0,-99.9,30.24,NNE,28,0.0,-999.0,-999,-99.99,,,-99.99,,2013-12-15 04:03:00,
2013-12-14 23:13:00,8.0,5.0,30.24,NNE,28,0.0,-999.0,88,-99.99,,,-99.99,,2013-12-15 04:13:00,
2013-12-14 23:23:00,8.0,5.0,30.12,East,89,0.0,-999.0,88,-99.99,,,-99.99,,2013-12-15 04:23:00,
2013-12-14 23:43:00,8.0,5.0,30.22,East,89,0.0,-999.0,88,-99.99,,,-99.99,,2013-12-15 04:43:00,
2013-12-14 23:53:00,8.0,5.0,30.19,East,89,0.0,-999.0,88,-99.99,,,-99.99,,2013-12-15 04:53:00,